Location: Slidell
(30.2789°N, 89.7378°W)
Time: 18:45:00
(UTC-05:00)

Cosmos 2360 Rocket - Visible Passes

Search period start: 26 March 2015 00:00
Search period end: 05 April 2015 00:00
Orbit: 834 x 845 km, 71.0° (Epoch: 26 March)

Date Brightness Start Highest point End Pass type
(mag) Time Alt. Az. Time Alt. Az. Time Alt. Az.
26 Mar 2.5 20:44:24 10° NNW 20:50:02 68° WSW 20:54:42 15° S visible
27 Mar 2.4 20:28:46 10° NNW 20:34:25 73° WSW 20:40:03 10° S visible
28 Mar 2.3 20:13:08 10° NNW 20:18:49 78° WSW 20:24:28 10° SSE visible
29 Mar 2.3 19:57:31 10° NNW 20:03:12 84° WSW 20:08:52 10° SSE visible
30 Mar 2.3 19:41:54 10° NNW 19:47:35 90° ENE 19:53:15 10° SSE visible
02 Apr 5.4 20:43:14 10° W 20:44:14 10° W 20:44:45 10° WSW visible
03 Apr 5.3 20:26:43 10° W 20:28:38 11° W 20:30:07 10° WSW visible
04 Apr 5.3 20:10:35 10° WNW 20:13:03 12° W 20:15:06 10° WSW visible
